Theta_e
312 312 308 304 304 304 305 305 304 305 306 307 306 307 307 308 308 308 308 308 308 309 309 309 309 308 308 308 308 309 310 309 309 309 310 308 308 309 309 311 312 312 311 311 311 311 311 311 310 310 310 309 309 308 307 307 306 308 311 312 310 309 309 307 306 305 305 305 305 305 304 306 306 306 305 305 305 305 305 305 305 305 304 304 304 304 303 303
307 305 304 304 305 304 304 304 305 306 306 306 307 307 307 308 308 308 308 308 308 309 309 309 309 309 309 309 308 309 309 310 310 309 309 308 309 309 308 310 312 311 311 310 310 310 311 311 310 309 310 309 308 308 308 307 307 307 310 311 309 308 306 305 305 304 304 306 306 305 304 305 306 305 304 305 307 306 306 306 306 305 305 304 304 304 304 303
303 304 304 305 304 304 305 305 305 306 306 306 306 306 307 309 309 309 309 309 309 309 309 310 310 310 309 309 309 309 310 310 310 309 308 308 309 308 308 310 311 312 311 310 310 310 310 310 310 310 309 308 306 307 307 307 307 306 309 310 307 305 305 303 303 303 303 305 306 305 304 304 305 304 304 306 306 306 306 307 306 306 305 305 304 304 304 304
304 304 304 304 304 305 305 305 306 306 306 307 306 307 309 309 309 309 309 309 309 309 309 309 310 310 310 310 309 309 310 310 310 309 308 309 309 309 308 309 310 312 311 311 310 310 310 310 310 310 309 308 306 306 306 306 307 306 307 308 305 304 305 303 302 302 302 304 305 305 304 304 304 304 304 305 305 306 306 306 305 305 305 305 304 304 304 304
304 304 304 304 305 305 306 306 306 307 307 307 306 307 309 309 309 309 309 308 309 309 309 310 310 310 311 310 309 309 309 312 311 309 309 309 309 309 309 308 309 309 310 310 310 309 309 309 310 309 308 308 307 307 305 303 305 305 303 305 304 304 305 303 302 302 303 304 304 304 304 305 304 304 304 304 305 307 306 305 304 304 304 304 304 304 304 304
304 304 305 305 306 306 306 307 307 307 307 307 307 308 309 309 308 309 309 308 308 309 309 311 310 311 311 310 309 309 310 312 310 308 309 309 309 309 309 309 308 308 308 308 309 309 309 309 309 308 307 306 307 307 305 303 305 306 303 303 303 303 304 303 302 303 303 303 304 304 305 304 304 305 304 304 305 306 306 305 304 304 303 303 304 304 304 305
304 305 305 306 307 307 307 307 307 307 308 308 308 308 308 309 308 308 309 309 309 310 310 311 310 310 310 310 310 309 310 310 308 308 309 309 309 309 309 309 309 308 308 308 308 309 308 309 309 306 307 307 305 305 304 304 306 306 304 303 303 302 303 303 302 303 303 303 304 304 304 304 305 305 303 303 306 306 305 305 304 304 303 303 304 304 304 305
305 305 305 306 306 306 307 307 307 307 308 308 308 308 309 309 309 309 310 310 310 311 311 311 311 310 310 310 310 310 310 308 308 308 309 309 309 309 309 309 309 309 309 309 309 309 308 309 308 306 307 307 305 305 304 305 306 305 304 303 303 302 302 302 302 303 303 304 304 304 305 305 304 303 302 304 306 306 305 305 304 304 304 304 304 304 304 305
305 305 305 305 305 306 307 307 307 308 308 309 309 309 310 309 310 309 310 311 310 311 311 311 311 310 311 310 311 311 309 308 307 308 309 309 309 309 309 309 309 309 309 309 309 309 309 309 309 308 307 305 304 305 304 306 307 304 303 303 304 303 303 303 303 303 303 304 304 304 305 305 303 303 304 306 306 306 306 305 304 304 304 304 304 305 305 305
305 305 305 306 306 306 307 306 307 308 309 309 309 309 310 309 310 310 310 311 311 312 312 312 312 311 311 310 311 312 309 308 307 307 308 308 309 309 310 310 309 309 309 309 309 309 309 309 308 308 307 305 304 304 304 306 306 303 303 304 303 303 302 304 304 303 304 303 303 304 306 305 302 303 306 307 306 306 306 305 304 304 304 304 305 305 305 305
305 305 305 306 306 306 306 306 307 309 309 309 309 310 309 310 311 310 311 311 311 312 312 312 312 311 311 310 311 311 309 308 307 308 308 308 309 309 309 309 309 309 309 309 309 309 309 309 308 308 308 306 305 304 303 303 303 303 304 304 303 303 303 304 304 303 304 304 303 303 305 305 303 304 307 307 306 306 306 305 305 305 304 304 305 305 305 305
307 306 306 306 306 306 306 307 308 309 309 309 309 309 310 311 311 311 311 311 311 312 312 312 311 311 311 311 311 309 309 309 309 308 308 309 309 309 309 309 309 309 309 310 309 309 309 308 309 309 308 306 305 305 304 302 303 303 304 305 304 305 305 304 304 304 304 304 303 302 305 307 305 305 307 306 306 306 306 306 306 305 305 305 305 305 305 305
307 308 307 306 306 306 306 308 309 310 309 309 309 310 311 311 311 311 311 312 312 312 312 312 312 312 312 311 309 309 310 310 310 309 309 309 309 309 309 309 309 309 309 310 310 309 309 308 309 308 306 305 304 305 305 303 304 305 305 306 306 307 307 304 304 304 303 304 302 302 308 310 308 306 307 306 305 306 306 306 306 306 306 305 305 305 305 305
307 308 308 307 306 306 308 309 310 309 310 310 310 311 312 312 311 312 312 312 312 312 312 312 312 312 312 311 310 310 310 310 311 310 310 310 309 309 308 309 309 309 309 309 309 308 308 308 309 307 305 305 303 304 305 305 306 306 305 307 308 310 308 304 303 305 304 304 303 303 309 311 308 307 306 305 305 305 305 306 306 306 306 306 306 305 305 305
307 307 307 306 307 308 310 310 310 309 310 311 312 312 312 313 312 312 313 313 312 312 312 313 313 313 312 310 310 311 311 311 311 310 311 310 310 309 309 309 309 309 309 309 308 307 307 308 309 307 305 305 306 307 308 307 307 306 308 310 309 310 309 304 302 303 304 304 303 305 309 311 309 307 305 305 305 304 305 306 306 306 306 306 306 306 306 305
306 306 307 308 308 309 310 310 310 311 311 311 312 312 312 313 313 313 313 313 313 313 313 313 314 314 313 311 311 311 311 312 311 311 311 310 310 310 310 310 310 310 309 308 308 308 308 309 308 306 306 307 308 310 310 309 309 308 309 311 310 310 310 307 302 301 303 303 304 305 308 310 309 306 305 305 305 304 304 305 306 306 307 306 306 306 306 306
307 307 308 309 309 309 309 310 311 311 312 313 313 313 313 313 313 314 313 313 313 313 313 313 313 313 313 311 311 311 311 311 312 311 311 311 311 310 310 310 309 310 309 309 309 309 309 309 308 307 308 308 308 310 312 311 311 310 310 311 310 308 309 310 306 302 302 303 305 305 306 308 309 307 307 306 305 304 304 306 306 306 308 307 306 306 306 306
309 309 309 309 309 310 309 310 311 312 312 313 313 313 313 313 314 314 313 313 313 313 314 313 313 315 313 311 311 310 310 311 311 312 312 311 311 311 310 310 310 310 309 310 310 309 309 308 309 311 310 309 308 310 312 311 310 311 312 311 310 309 309 310 308 304 302 304 305 306 306 308 308 309 309 307 305 305 304 305 306 307 308 307 307 307 306 306
309 310 310 310 310 310 310 310 311 312 313 313 313 313 313 313 313 313 313 313 313 314 315 312 313 315 313 310 310 310 310 310 311 312 312 312 311 311 311 311 311 311 310 312 311 309 309 311 311 313 310 308 305 306 309 308 307 310 310 310 311 311 310 308 306 303 301 304 305 306 307 307 308 309 309 307 304 304 304 305 306 307 308 307 307 307 306 306
309 309 309 309 309 310 310 311 312 312 313 313 313 313 313 313 314 313 312 312 312 311 312 310 310 312 311 310 310 310 310 310 310 311 312 312 311 311 311 310 310 311 310 311 311 308 310 312 311 309 307 305 303 302 304 303 304 307 308 309 309 310 311 308 304 302 300 304 307 305 305 307 307 309 310 307 303 304 305 305 307 308 308 307 307 307 306 306
309 309 309 310 310 311 311 312 313 313 313 313 313 313 313 314 315 314 311 311 310 310 310 310 310 310 310 310 310 311 310 310 310 310 312 311 311 312 311 311 313 312 308 305 308 309 312 312 308 305 304 302 301 301 302 303 304 305 308 310 310 310 310 307 303 302 301 305 308 305 305 308 310 310 309 305 304 306 307 307 308 308 307 307 307 307 307 307
309 309 309 310 311 312 312 313 313 313 313 313 313 314 314 314 315 314 312 311 310 310 311 310 311 311 310 310 310 311 311 311 311 311 311 311 311 312 310 312 315 312 307 307 311 312 312 311 306 303 301 301 301 300 302 303 304 307 309 311 312 310 309 307 303 301 301 305 309 307 306 310 310 309 308 306 306 307 307 307 308 308 308 308 308 308 308 307
309 309 309 309 310 310 312 313 314 314 314 314 314 314 314 313 313 313 313 313 311 310 310 310 311 311 311 311 310 310 310 310 311 310 310 311 310 310 310 311 312 310 309 312 315 316 313 309 304 301 301 302 302 301 302 305 306 308 309 312 312 309 309 310 306 302 302 303 306 306 305 310 310 308 307 306 305 305 305 306 307 307 307 307 307 308 308 307
308 308 308 308 308 308 310 311 312 314 314 313 313 312 312 312 312 313 312 312 312 311 310 310 310 310 311 310 310 311 309 308 309 309 311 311 310 310 309 308 310 309 308 311 314 314 310 305 300 300 301 302 303 303 303 307 310 307 307 309 310 307 306 308 306 303 304 303 302 304 310 313 312 310 309 307 304 305 306 305 306 307 307 307 307 308 307 307
308 307 308 308 308 308 309 309 310 311 311 311 311 311 311 311 310 312 312 312 313 311 310 311 310 310 310 310 311 310 309 309 308 309 310 310 310 310 308 307 310 309 307 309 312 310 306 301 299 302 303 302 304 306 304 307 311 309 306 305 305 304 304 305 305 305 309 311 304 305 314 316 313 312 311 309 307 307 307 306 307 307 306 307 308 308 308 307
309 309 308 308 308 309 309 309 309 309 309 309 309 309 309 309 310 310 313 317 313 310 311 312 310 311 310 310 311 310 312 310 307 308 310 310 310 310 309 307 308 309 306 306 308 308 304 299 299 302 304 304 307 307 303 303 310 312 305 301 302 303 303 304 304 307 313 314 305 304 313 315 315 315 312 308 307 308 309 308 308 308 306 307 307 308 308 307
310 309 309 309 309 309 309 309 310 309 309 309 308 308 307 307 309 308 313 317 312 309 311 312 310 311 309 309 310 311 314 311 308 309 308 310 310 309 312 310 308 308 302 304 310 308 304 303 302 302 304 307 309 308 303 301 309 311 302 300 302 302 304 304 304 308 310 309 307 307 309 312 315 315 309 306 309 310 310 310 310 309 307 307 307 308 308 308
309 309 310 310 309 310 310 310 310 309 309 308 308 307 307 308 308 309 314 314 309 308 311 312 310 310 309 309 309 309 310 309 310 311 308 309 310 309 312 309 309 308 300 307 314 307 302 306 304 303 306 308 306 304 301 300 306 307 300 300 302 301 303 303 305 308 307 308 313 310 307 312 315 314 309 307 310 312 312 312 311 310 309 307 307 308 308 308
308 308 309 310 310 310 310 310 309 308 309 308 307 307 307 307 308 312 316 311 307 309 311 311 312 310 309 310 309 308 308 308 310 310 308 309 309 309 310 306 305 307 303 308 313 306 302 304 302 303 307 306 303 300 299 301 304 303 300 301 302 301 302 302 305 308 307 311 315 309 305 311 315 314 313 310 311 314 314 312 311 310 309 308 307 308 308 308
308 309 309 309 310 309 309 310 309 309 308 307 308 307 307 309 313 316 315 310 309 310 309 311 312 309 309 312 312 308 308 308 306 307 308 308 308 309 307 305 306 308 309 308 308 304 302 302 302 303 304 302 301 299 298 299 301 300 301 303 305 304 303 303 304 306 311 314 312 306 303 309 313 314 315 314 313 314 313 312 311 309 308 308 308 308 308 308
308 308 308 309 309 309 310 310 309 309 308 307 309 308 308 313 317 316 310 307 310 311 311 312 310 308 311 315 314 309 309 308 304 308 311 307 308 308 306 308 309 310 312 311 309 306 304 305 304 302 301 300 301 302 299 298 299 301 303 305 309 310 307 309 309 308 313 315 309 304 302 306 312 314 314 314 312 311 311 312 311 310 309 308 308 308 308 308
308 308 308 308 309 309 310 309 309 308 307 308 310 310 313 315 315 314 310 308 311 311 312 312 309 308 311 313 313 309 310 309 305 306 309 306 306 305 305 307 308 311 314 311 311 310 308 307 303 301 301 299 302 306 304 301 301 302 305 307 312 314 313 314 314 312 313 313 306 302 303 306 312 314 313 313 311 310 309 310 310 310 309 308 308 308 308 308
307 308 308 308 308 309 309 309 309 307 307 308 308 312 318 317 313 312 311 310 309 308 308 309 308 308 311 314 313 307 308 309 306 306 305 306 307 304 302 302 303 309 312 309 311 313 312 308 304 304 303 299 301 308 310 308 305 306 307 310 314 315 314 315 314 312 314 313 305 300 304 310 313 314 313 311 310 308 307 307 308 308 308 308 308 308 308 308
307 307 307 308 309 309 309 309 307 307 307 308 311 315 316 315 312 310 310 310 306 304 305 307 309 310 310 312 309 305 308 309 306 308 308 308 310 308 306 304 302 305 308 308 310 311 313 313 308 306 305 301 301 304 306 305 306 306 304 306 312 313 314 315 314 314 314 313 308 303 307 313 313 313 312 309 307 306 306 307 307 307 308 308 308 308 308 308
307 307 307 308 308 308 309 308 308 308 307 309 317 319 316 316 314 312 313 310 305 307 307 304 312 317 312 309 307 304 308 310 307 309 310 309 309 308 307 305 303 303 306 311 310 308 312 313 306 303 302 301 302 301 299 303 307 305 301 306 312 310 310 312 311 312 311 312 312 309 311 312 312 312 310 306 306 306 307 307 307 308 308 308 309 309 309 309
306 307 307 308 308 308 309 308 308 308 307 312 321 320 317 316 312 311 312 308 307 310 310 309 314 317 314 310 310 307 306 307 308 309 309 307 306 305 304 303 301 301 305 309 309 308 312 312 304 302 302 300 301 300 298 302 307 306 306 310 308 303 305 310 308 305 307 312 314 311 312 313 312 312 311 308 309 309 308 308 307 308 309 308 309 310 310 310
307 307 307 308 308 309 309 308 308 307 307 314 321 317 314 310 305 306 306 305 306 308 312 315 312 312 316 314 312 311 308 307 309 311 310 307 307 306 304 302 301 300 301 304 307 307 309 312 306 302 305 301 298 300 299 299 302 307 310 308 303 302 304 308 312 311 311 315 315 311 312 313 313 313 313 312 313 312 311 310 308 308 310 310 310 311 311 310
307 308 308 308 308 308 309 308 308 308 310 316 320 315 308 305 301 301 302 302 305 309 314 317 311 308 316 317 313 311 310 311 312 312 311 309 308 306 303 303 301 299 298 300 305 304 305 312 309 301 304 303 298 301 305 302 299 304 307 303 304 310 311 311 313 314 315 316 315 314 312 311 313 314 314 314 314 314 313 312 311 310 311 311 311 311 310 310
307 308 308 307 307 307 309 309 307 308 312 317 321 315 306 303 301 299 302 302 304 309 313 314 310 308 311 313 312 310 308 311 312 311 311 310 309 305 302 303 301 299 297 298 304 304 303 311 312 303 301 302 302 305 309 309 303 301 304 303 303 307 309 310 310 311 315 315 314 316 315 314 314 313 314 315 314 314 313 313 313 312 311 311 311 310 310 310
307 308 308 307 307 308 309 309 308 313 318 315 314 312 302 301 302 299 302 303 302 307 312 312 311 312 312 310 309 308 306 308 309 310 310 308 308 307 301 301 301 299 298 298 301 303 302 309 312 306 301 304 307 306 306 308 306 305 308 308 306 304 304 306 306 305 310 314 313 314 316 317 316 313 313 313 313 313 313 312 313 311 310 311 310 310 310 309
307 309 309 307 307 308 308 310 307 308 316 310 305 305 301 301 302 299 301 302 301 303 307 309 310 312 314 312 309 307 307 308 308 309 309 307 309 309 302 299 299 299 300 301 302 303 304 308 311 309 308 309 307 300 297 299 300 303 307 308 308 307 307 312 311 304 304 309 310 311 315 318 315 312 310 310 310 310 308 307 309 310 310 311 310 309 309 308
307 310 309 307 308 308 309 312 302 298 309 309 303 302 302 300 300 300 300 300 301 301 302 305 307 308 310 311 309 307 308 310 310 309 309 308 307 307 301 297 297 298 300 304 302 301 302 306 310 311 308 305 301 296 295 296 295 297 301 302 305 306 308 314 316 309 305 305 305 306 311 317 315 309 306 306 306 305 305 304 306 309 310 310 309 309 309 308
306 308 307 307 308 307 308 313 307 302 304 302 298 298 299 298 299 301 300 300 302 302 304 306 305 307 307 305 307 309 308 310 310 308 308 307 304 301 298 296 297 298 300 303 303 301 302 306 310 312 307 301 298 296 294 294 295 299 301 299 302 304 306 309 310 309 308 306 306 308 311 317 315 307 303 304 303 303 305 306 306 308 309 309 309 309 309 309
305 306 307 307 308 308 309 314 317 312 303 298 298 299 298 297 298 301 302 302 302 303 307 307 303 304 303 299 304 308 306 309 311 306 305 305 302 298 296 297 297 298 300 302 302 303 305 308 310 312 312 309 307 305 303 300 298 303 303 299 300 302 302 304 304 305 309 309 309 312 315 317 314 308 305 305 303 305 307 308 307 308 308 308 309 309 309 309
306 306 307 306 307 308 309 310 314 315 307 304 304 302 301 300 299 300 301 301 300 300 305 306 301 301 299 297 303 304 300 306 310 306 304 303 301 297 296 297 297 298 300 300 299 301 305 307 308 312 314 314 314 313 312 309 304 303 302 299 299 301 303 307 307 307 311 309 307 311 315 317 315 312 311 310 308 309 310 310 309 308 307 308 308 309 310 309
306 308 308 307 307 306 306 304 306 312 311 310 309 304 303 304 301 299 299 301 300 299 302 302 299 301 301 301 309 310 303 302 303 305 306 304 301 297 296 297 297 297 299 298 298 299 303 304 306 310 313 313 314 313 308 307 306 306 305 301 300 301 301 305 307 308 310 308 307 310 313 315 315 314 313 312 311 311 311 311 310 308 308 309 309 309 310 309
306 309 307 308 308 306 307 304 303 306 307 309 310 306 305 306 302 300 300 299 300 299 300 300 299 304 307 307 312 313 307 303 303 305 306 303 299 297 295 296 297 298 299 298 297 299 303 306 305 306 310 309 308 307 304 305 306 307 307 305 302 300 301 304 308 309 309 309 311 312 310 311 313 312 312 312 311 311 311 310 309 308 309 310 309 310 310 310
307 306 303 304 307 307 309 308 303 301 303 305 306 304 306 307 305 305 303 298 298 299 302 304 303 306 310 309 311 312 309 308 309 308 306 302 299 298 298 297 296 297 298 297 296 298 304 306 303 302 306 306 303 303 302 302 303 303 304 305 303 301 301 304 308 308 308 310 314 313 309 310 311 311 311 311 310 310 309 308 308 307 308 309 309 309 310 310
305 305 302 303 305 304 305 304 301 302 303 304 305 304 308 311 308 305 302 299 301 299 301 309 309 306 307 307 308 313 313 311 311 310 307 305 301 300 302 302 298 296 297 297 296 296 301 306 303 301 305 306 303 301 299 299 301 302 302 303 303 302 302 304 306 306 306 309 311 312 310 310 310 309 309 309 309 308 307 307 307 308 309 309 308 309 310 310
304 305 303 304 304 301 301 301 301 305 305 303 306 306 305 310 310 304 300 303 309 304 299 308 311 305 304 304 305 312 313 310 312 311 306 307 306 302 305 307 302 296 296 297 297 296 300 305 303 300 305 308 303 299 298 299 300 302 303 302 302 302 302 303 304 304 305 306 307 308 307 307 307 308 308 307 307 306 306 307 308 308 309 308 308 309 310 310
304 305 303 306 307 302 301 300 300 305 308 306 308 307 305 309 309 305 302 302 306 306 303 306 309 304 301 301 304 310 308 305 309 308 304 306 308 305 304 305 303 300 298 297 297 297 299 302 301 300 306 310 304 299 301 301 301 304 307 306 303 302 302 303 303 303 304 305 305 305 305 306 307 308 307 307 306 306 306 307 308 309 308 307 308 309 309 309
303 305 304 306 308 302 301 301 299 304 310 307 305 305 305 307 304 303 307 303 300 302 303 301 303 305 304 304 306 308 305 303 305 305 302 303 304 302 302 302 302 302 299 297 298 298 298 302 302 302 307 309 303 300 302 304 307 311 313 312 309 305 302 302 302 302 303 304 305 306 307 309 309 308 307 308 309 308 308 308 308 308 307 307 307 308 308 308
Wind_Speed
8 8 6 4 4 5 3 2 3 3 2 1 1 1 1 3 4 5 3 2 5 6 6 4 3 4 6 8 9 10 14 13 8 8 9 15 12 7 8 6 7 8 8 9 8 7 6 6 7 9 11 12 14 12 10 9 7 4 0 2 5 2 3 5 5 3 1 5 8 7 7 5 3 4 3 5 7 7 10 11 11 12 12 10 9 8 7 7
6 6 6 6 6 5 3 3 2 2 2 2 1 0 1 3 5 8 8 5 7 8 7 5 2 2 4 5 6 6 9 10 9 15 17 13 7 6 7 6 6 6 7 8 7 6 5 7 7 7 10 11 11 8 7 8 8 5 0 3 4 2 3 2 2 4 1 5 8 6 7 6 2 1 2 5 5 5 8 9 10 12 12 10 10 8 8 8
7 8 8 7 5 3 2 2 3 2 1 1 0 1 2 3 5 4 5 5 8 9 9 6 5 4 2 2 3 4 7 7 7 16 18 10 5 5 6 6 5 5 6 6 5 4 4 6 5 6 13 14 10 9 8 7 7 4 1 3 3 3 4 2 2 3 1 5 7 6 6 6 4 3 3 4 6 6 9 9 8 9 9 8 8 8 8 8
10 9 7 5 3 2 2 4 4 2 1 1 1 3 3 5 9 8 3 6 7 8 8 8 9 8 6 4 2 0 4 7 10 18 15 10 6 4 6 6 5 5 4 3 2 3 4 5 7 9 15 12 8 10 9 7 5 4 3 4 5 5 4 4 4 2 4 6 5 4 4 4 4 5 4 4 6 6 7 7 8 8 7 6 6 8 9 8
9 7 5 3 2 4 5 5 4 3 3 2 2 4 4 2 6 9 7 6 6 4 4 5 7 8 7 6 4 3 2 2 9 14 12 11 8 4 5 6 6 5 4 4 3 5 7 8 11 11 13 7 5 6 6 7 8 7 4 4 7 5 3 5 4 4 7 6 4 3 3 3 2 5 6 6 7 5 4 5 7 8 8 7 8 9 9 8
7 6 4 3 5 7 6 5 5 4 4 3 3 4 4 2 2 4 6 6 6 4 3 5 9 6 2 4 4 4 3 2 8 12 13 12 9 6 5 5 6 7 6 6 7 8 9 8 9 9 9 6 6 6 4 5 5 6 3 3 5 2 4 8 6 6 7 4 3 2 3 3 3 5 6 9 13 11 10 10 11 10 9 10 10 9 9 9
6 6 5 5 6 6 5 5 4 4 3 3 3 3 3 2 2 3 6 7 8 7 7 9 13 15 14 9 6 8 13 11 9 12 14 12 9 7 5 5 5 6 6 6 6 7 6 7 12 13 9 6 7 7 7 8 8 7 6 3 4 4 6 9 6 6 5 2 1 3 5 4 4 5 6 11 15 12 12 12 11 11 10 10 10 10 10 10
6 6 5 5 4 3 4 4 4 3 2 3 3 3 2 3 5 7 8 6 6 6 6 7 7 11 15 12 12 18 19 15 12 12 13 13 9 7 7 6 6 6 5 5 6 8 8 12 17 13 7 6 6 6 7 11 12 9 7 5 6 6 6 8 6 4 3 1 1 4 6 5 6 7 10 15 15 9 10 10 8 9 9 9 9 9 10 11
4 4 4 3 3 3 4 3 3 3 2 2 3 6 6 7 8 9 7 4 2 1 3 5 4 7 8 3 7 16 15 14 15 12 11 12 11 8 8 7 9 8 6 7 8 9 8 10 10 7 9 10 7 6 4 4 5 6 8 8 7 6 5 6 5 3 2 2 3 5 6 5 6 8 10 14 12 10 10 9 8 8 8 8 9 9 10 11
3 2 2 2 3 4 4 3 3 3 3 3 5 7 8 8 7 7 8 4 3 3 2 4 6 7 3 3 6 9 9 14 16 12 9 10 9 8 9 8 7 5 3 4 6 7 6 8 12 15 18 14 8 7 6 3 7 11 12 11 9 7 5 4 4 4 3 2 3 5 7 4 4 4 5 4 4 9 9 7 8 8 8 8 8 9 10 10
3 3 2 2 3 3 3 2 3 4 3 4 7 7 5 6 5 8 9 6 8 6 4 4 4 5 6 9 17 12 9 15 16 14 12 7 5 9 13 14 10 7 7 8 11 12 13 16 17 13 10 11 11 12 12 11 15 15 12 11 9 6 6 4 2 4 4 1 3 5 9 6 1 2 8 7 5 7 7 7 8 8 8 8 8 8 9 9
4 4 4 4 3 2 2 3 5 5 5 6 7 5 4 6 6 8 7 4 5 6 12 15 14 10 10 17 23 14 10 13 14 16 16 12 10 11 13 14 12 11 8 9 13 12 11 10 7 6 10 13 9 8 12 15 14 10 6 5 5 4 4 5 3 5 4 1 5 6 8 5 6 7 8 7 9 9 9 9 8 8 9 9 9 8 8 8
2 4 4 4 3 3 4 5 7 7 7 7 6 5 6 8 9 8 4 4 3 10 13 13 10 5 7 16 18 11 9 9 10 13 14 16 17 14 13 11 9 9 6 7 12 10 7 4 4 14 20 14 7 9 14 12 8 7 2 1 3 4 2 5 4 5 1 2 6 5 4 1 5 9 7 4 7 8 10 10 9 10 10 9 10 9 9 8
2 4 5 5 5 6 6 6 7 7 7 7 7 6 6 7 9 7 5 6 6 10 9 4 3 3 7 13 11 8 7 6 7 6 8 13 15 15 16 14 12 12 11 12 16 15 15 12 13 19 20 16 16 17 13 6 4 3 0 0 1 1 2 5 6 6 1 3 7 4 4 1 2 1 6 8 8 8 10 10 11 12 12 12 11 11 11 9
6 7 8 8 8 8 8 7 8 8 8 7 6 6 6 7 8 8 7 6 8 9 8 7 7 9 15 13 7 7 5 4 4 3 5 9 10 11 13 14 14 15 16 18 18 18 17 14 17 19 17 19 19 11 6 2 2 1 1 1 1 1 2 4 6 8 3 2 5 3 4 4 3 2 4 7 7 8 9 10 11 13 13 14 13 13 12 11
9 10 10 9 9 8 8 7 8 9 9 8 7 7 6 7 8 9 8 7 9 10 9 11 10 10 13 9 6 7 5 4 4 4 5 6 7 8 9 11 12 12 14 16 16 14 12 11 18 18 12 11 7 2 3 3 2 1 2 1 1 1 1 2 3 6 5 3 3 2 3 5 2 1 3 5 7 7 9 12 14 16 15 13 13 14 13 12
9 9 9 9 9 8 7 8 9 10 10 10 8 7 5 6 9 9 10 10 11 10 8 12 12 10 10 7 5 6 5 5 5 5 5 5 6 6 8 8 9 11 12 12 10 8 7 9 12 10 7 5 2 1 2 1 1 2 1 1 0 1 1 1 2 3 6 2 2 2 5 10 7 5 7 8 11 12 13 15 16 17 14 11 12 13 13 12
9 9 9 9 9 9 9 10 11 11 13 13 12 12 9 6 8 6 6 6 5 4 4 6 6 5 8 7 5 7 7 5 4 5 5 4 4 5 5 4 4 7 7 8 7 6 8 9 6 3 4 5 3 2 1 1 2 2 2 1 1 1 2 2 0 3 6 2 4 4 7 12 12 11 11 9 11 13 14 15 16 14 11 9 10 10 11 12
8 9 10 10 9 8 8 8 10 12 14 14 13 12 11 10 9 6 5 5 4 3 1 6 7 4 5 5 7 10 11 8 4 4 4 4 4 5 4 2 2 3 3 2 7 9 8 6 4 3 3 5 4 4 2 2 2 2 2 1 2 2 2 1 1 3 5 4 5 6 7 10 12 11 9 6 7 9 11 13 13 10 7 7 8 8 9 10
6 7 7 6 5 3 4 7 10 12 12 11 7 4 2 7 10 9 13 17 18 14 8 11 14 11 7 4 5 8 10 12 9 3 4 4 6 5 3 2 4 5 4 1 4 8 6 5 5 3 3 3 2 2 2 2 1 2 1 0 0 3 2 0 0 2 2 5 4 4 7 12 13 12 8 4 6 8 9 10 9 7 6 7 7 7 8 9
6 6 4 4 4 4 7 8 8 8 7 4 1 3 2 3 4 8 18 21 20 18 15 14 15 13 10 6 4 4 5 10 12 6 3 4 6 3 2 0 2 6 6 2 1 3 4 5 4 2 2 3 0 1 1 1 1 1 1 1 1 2 1 1 1 1 2 3 2 2 8 13 12 9 5 4 6 7 10 9 8 9 8 7 7 8 8 8
8 7 7 7 7 7 7 5 3 3 3 2 0 4 7 9 10 13 16 15 15 17 16 15 14 13 12 9 5 3 3 7 12 9 4 3 4 2 2 5 4 3 2 2 0 2 4 5 2 2 3 2 3 2 1 1 1 0 0 2 0 1 3 2 1 1 1 2 2 3 8 11 9 6 5 6 6 6 9 11 11 12 11 9 8 7 7 6
11 10 10 11 10 9 8 8 7 5 7 8 10 14 15 15 15 14 16 13 11 12 13 13 14 13 11 10 8 6 6 8 10 12 9 6 7 8 8 7 5 3 3 4 1 2 3 3 2 2 3 1 2 2 1 1 1 1 1 2 1 3 3 1 2 1 3 1 4 7 7 8 5 3 3 4 4 5 6 9 9 10 10 8 7 7 7 6
10 10 10 10 10 10 10 12 12 12 14 13 11 13 13 12 10 10 11 9 5 6 9 10 12 12 10 9 7 8 13 13 11 14 13 9 8 9 9 6 5 5 5 6 6 7 5 3 2 2 2 1 1 2 0 1 0 1 2 2 2 3 4 3 3 6 4 2 3 8 6 4 1 2 3 1 2 5 5 7 8 9 9 7 6 7 8 7
7 7 6 6 7 8 8 10 10 10 9 7 6 6 5 5 4 4 4 5 4 4 5 5 7 9 8 7 4 5 10 14 16 16 13 11 8 6 6 6 5 3 1 3 6 8 5 2 1 2 1 1 2 1 2 3 1 1 0 1 2 3 4 6 7 6 3 3 1 5 3 2 2 3 3 1 2 4 4 6 8 9 9 8 7 7 8 8
5 4 3 2 3 4 5 6 7 6 4 2 2 3 2 2 2 3 2 2 2 3 5 3 5 5 7 9 3 3 3 6 13 17 13 10 8 5 5 5 5 3 2 0 3 4 3 2 1 1 1 2 2 2 2 3 2 0 0 1 0 2 4 5 6 4 2 0 2 3 3 2 0 2 1 2 3 6 5 7 9 10 11 10 8 8 8 8
4 4 4 2 1 1 2 2 3 4 2 0 1 3 2 0 1 2 1 1 1 2 3 2 3 4 6 10 6 2 1 2 5 14 16 12 7 5 4 2 3 4 2 2 2 2 1 2 2 1 2 2 1 2 1 2 3 1 1 0 1 2 3 3 4 3 1 2 2 2 3 3 2 1 2 3 4 6 7 8 10 12 14 13 11 9 8 8
2 2 3 3 3 3 2 3 4 3 1 1 1 1 1 1 1 0 1 1 0 2 2 1 2 4 6 9 11 7 4 3 2 8 14 13 8 5 5 3 2 5 2 2 1 2 2 1 1 1 0 1 2 2 1 1 2 1 2 0 1 2 1 1 3 2 1 2 2 3 4 3 2 1 2 1 3 6 6 6 7 10 14 14 13 10 8 8
3 1 1 3 4 5 5 5 5 3 2 0 1 1 1 1 0 1 1 1 1 1 2 1 1 4 7 6 12 13 8 6 4 5 9 11 10 8 8 7 8 8 4 3 3 3 2 2 1 2 2 3 2 2 1 1 1 2 2 1 1 1 0 1 3 1 1 3 1 4 6 3 2 1 2 1 2 4 3 2 3 6 12 15 14 11 9 8
4 2 1 1 3 4 5 4 3 2 2 2 2 2 2 1 1 1 1 1 0 0 2 3 2 7 8 2 6 12 8 7 8 6 7 9 11 12 12 10 8 6 5 7 7 3 1 2 2 2 3 2 2 3 2 1 1 1 2 2 2 2 1 1 1 1 2 2 2 3 5 4 2 0 1 1 1 1 1 1 2 5 10 14 15 12 10 8
4 3 2 1 1 2 2 2 2 3 3 4 4 4 3 1 1 2 0 0 1 1 2 3 2 5 7 2 3 8 5 6 10 7 6 6 7 9 7 4 2 2 3 5 5 2 1 2 2 2 3 1 2 2 2 2 2 1 2 2 2 2 2 2 2 1 2 0 3 1 4 3 3 0 1 1 1 3 3 2 2 5 8 13 15 14 12 11
4 3 3 3 1 1 1 3 4 5 5 6 6 3 2 0 1 1 1 1 1 1 1 2 2 3 4 1 3 5 3 4 9 7 4 2 4 5 3 2 1 0 1 2 1 1 1 1 1 1 2 1 1 1 1 3 2 2 2 2 2 1 1 1 1 1 2 1 3 0 2 2 5 3 2 3 3 4 5 4 3 3 7 11 14 15 15 14
4 4 6 5 4 3 3 5 5 6 6 6 5 2 2 1 1 1 0 1 2 2 1 1 2 1 1 1 3 4 2 1 5 4 2 1 2 3 1 1 1 2 0 1 1 1 1 2 1 1 1 1 2 1 1 1 1 1 1 2 2 1 1 1 1 1 2 1 2 0 3 2 4 3 3 4 3 2 5 8 8 8 9 12 14 16 17 18
5 5 7 7 5 4 4 5 5 5 6 6 4 2 3 0 1 1 1 2 1 2 1 1 1 1 2 2 1 2 0 1 3 2 1 1 1 2 1 2 1 1 1 1 1 1 0 1 1 1 1 1 1 2 2 2 1 0 1 2 2 2 2 2 2 2 3 2 0 1 2 1 1 1 1 4 7 8 9 10 10 12 12 13 15 17 19 20
5 5 6 8 7 5 5 5 5 5 7 6 3 3 1 2 2 1 2 2 1 1 0 1 1 2 3 2 1 1 1 1 1 1 2 2 1 1 1 1 2 2 1 1 1 0 1 0 2 2 2 2 1 1 1 2 1 1 1 2 1 2 2 1 1 1 2 3 1 1 2 2 2 2 2 4 8 11 12 12 12 14 13 13 15 17 18 18
6 5 5 7 7 6 5 4 4 5 7 5 3 1 1 1 1 2 1 2 2 3 3 1 1 2 1 0 1 1 1 1 1 0 2 2 0 0 0 1 1 1 1 1 1 1 1 1 2 1 1 2 1 0 0 2 1 0 1 0 1 1 0 1 1 0 1 2 1 1 3 4 2 2 2 2 4 5 7 9 13 16 15 15 16 15 14 14
6 5 5 6 7 6 5 4 4 5 6 4 2 1 1 0 0 1 1 1 1 2 3 3 0 1 2 2 1 0 1 1 1 1 1 1 1 2 1 0 0 0 2 2 1 0 1 1 2 0 1 2 1 1 1 1 2 1 0 2 2 1 0 0 1 0 0 2 1 1 3 5 2 0 0 1 2 3 3 4 8 13 14 14 14 13 12 13
5 4 5 6 7 6 4 3 4 6 4 3 1 1 1 1 0 0 0 1 1 1 1 2 1 1 2 2 1 0 1 1 0 1 1 1 1 2 2 1 1 1 2 2 0 0 2 1 2 0 1 1 1 2 1 1 1 1 2 2 1 1 0 0 1 1 2 3 3 1 3 4 3 1 1 2 3 4 3 1 4 7 9 11 12 12 13 14
4 3 4 6 6 5 3 3 5 5 3 1 1 1 1 1 0 1 1 1 0 1 0 1 1 1 1 1 1 1 1 1 1 1 1 1 1 2 1 0 2 1 2 1 0 1 0 1 1 1 1 2 1 2 1 2 2 1 2 1 0 1 2 2 1 1 2 2 3 3 3 2 4 3 2 3 4 3 2 2 3 5 8 10 11 13 16 18
2 1 2 4 5 4 3 4 5 4 2 0 1 1 1 1 2 2 2 1 0 0 1 2 1 1 2 1 1 0 1 0 1 1 0 0 0 1 1 1 2 2 0 0 0 0 0 1 1 1 1 2 1 0 2 1 0 2 2 1 1 1 0 0 1 0 2 2 2 2 4 4 2 2 4 4 1 1 2 2 4 8 11 11 14 18 21 23
1 1 1 2 4 3 3 4 5 4 2 1 1 1 1 2 3 2 2 2 2 1 1 2 2 2 3 1 1 2 1 1 1 0 1 2 1 0 1 2 2 2 1 1 1 1 1 0 1 0 2 2 1 2 3 3 3 2 1 0 1 1 0 1 0 1 1 2 1 1 5 6 1 1 4 4 1 1 3 3 6 11 13 15 20 23 23 24
1 1 1 1 3 2 4 4 5 4 2 1 2 2 2 2 3 3 2 2 2 1 2 2 2 2 2 1 0 2 2 1 1 1 1 2 0 1 2 4 3 3 2 1 1 0 0 0 1 1 0 1 2 2 1 2 2 2 2 1 0 1 1 2 2 2 2 1 0 1 4 5 0 1 3 4 3 5 7 8 10 14 18 20 23 24 22 22
1 1 1 1 2 2 4 2 2 2 2 2 2 3 3 2 2 3 2 1 1 1 1 2 1 1 1 1 1 2 2 1 2 1 1 1 0 1 3 4 3 3 2 0 1 2 1 0 1 1 1 2 1 1 1 1 2 2 2 1 1 1 1 1 1 0 1 3 3 1 4 4 0 1 4 5 6 8 9 10 12 17 22 23 23 23 23 22
2 2 1 1 2 2 2 1 1 1 1 1 2 2 2 1 1 2 1 1 1 1 1 1 1 1 1 0 2 2 1 1 2 0 0 2 1 2 3 3 3 2 1 1 1 3 2 0 1 2 1 1 1 1 2 1 1 3 2 2 2 1 3 2 1 1 2 5 5 3 5 4 1 1 3 4 5 8 10 12 13 17 22 24 24 24 23 22
2 1 1 2 3 0 2 2 3 3 2 2 2 2 2 2 1 1 1 2 2 1 2 2 2 3 3 2 3 2 1 1 0 0 1 1 2 2 2 2 2 1 1 1 2 2 1 0 1 2 2 3 2 2 1 1 2 2 2 3 4 5 5 3 2 2 4 3 5 6 6 3 1 2 4 5 5 8 13 14 13 15 20 24 25 25 23 22
1 1 1 2 5 4 5 4 4 5 4 3 2 2 1 2 1 0 2 2 2 2 3 3 3 4 2 1 2 2 1 2 2 1 1 2 2 1 1 2 2 2 3 3 3 2 1 1 3 4 5 4 2 2 1 1 1 2 3 5 6 7 5 2 2 4 4 4 5 10 8 6 9 9 7 6 7 8 13 15 14 17 24 26 26 26 24 22
2 1 1 1 3 6 7 6 4 4 4 3 3 2 3 2 1 1 2 1 1 3 2 2 2 3 2 3 2 1 0 2 2 1 1 1 1 1 1 2 2 3 4 3 2 1 0 2 2 3 7 6 3 0 2 2 5 5 5 6 9 9 7 7 8 5 5 3 6 7 7 8 14 13 11 12 11 8 11 14 16 21 27 27 25 24 23 22
3 1 1 1 1 2 3 4 4 5 5 2 1 2 3 3 2 2 3 1 1 4 2 0 3 4 4 4 3 3 2 1 1 2 1 1 2 1 1 2 2 3 4 3 1 1 1 2 1 1 5 7 4 3 3 4 6 6 7 8 9 10 11 13 14 8 8 8 10 2 4 9 13 13 14 14 12 11 17 23 24 27 28 25 23 22 22 22
3 3 3 3 2 2 1 2 4 6 5 3 1 2 3 5 4 2 2 2 1 3 4 3 4 5 4 3 2 3 3 2 2 3 3 3 2 2 2 2 3 3 3 3 1 0 2 2 1 1 5 7 5 3 3 5 6 6 10 13 11 12 14 15 14 10 10 13 15 9 7 12 16 16 16 19 20 21 26 31 30 28 26 23 22 22 22 22
2 2 3 3 3 5 4 3 3 3 2 2 0 2 3 5 5 2 3 5 2 1 5 4 3 3 3 3 3 2 4 4 0 2 6 5 1 3 3 2 3 3 2 2 1 0 2 1 2 2 4 6 2 1 1 5 5 7 11 13 12 13 14 15 12 8 9 13 16 13 11 15 19 17 14 20 25 22 23 27 28 26 24 22 23 24 24 22
2 1 2 3 2 3 2 2 2 1 0 0 1 2 2 4 6 5 3 4 3 4 7 6 4 4 2 2 5 5 4 4 2 1 8 6 2 4 4 3 7 7 3 3 2 1 2 1 2 2 3 3 1 3 2 3 5 9 13 14 14 14 11 11 10 9 12 13 10 7 7 12 13 8 7 14 17 15 17 23 26 26 23 22 23 25 24 21
1 1 1 2 1 1 1 2 1 1 1 2 2 3 3 3 6 9 3 3 5 5 6 8 8 5 2 3 7 7 4 3 2 1 7 4 1 4 4 5 8 7 5 5 2 1 3 3 2 1 3 3 1 3 3 5 7 8 8 8 10 12 10 7 7 11 14 12 6 6 9 9 4 2 4 10 11 11 15 20 24 26 26 25 26 25 23 22
Wind_Direction
161 166 173 181 196 198 190 235 268 276 263 178 146 167 274 264 257 256 258 217 179 174 173 158 114 66 55 58 58 58 61 57 73 114 76 40 32 42 64 87 103 97 95 87 86 91 109 139 135 127 127 114 97 90 82 73 65 74 96 91 109 148 138 159 173 155 107 139 163 175 191 213 188 197 252 275 259 257 265 262 261 265 266 267 268 273 282 293
166 166 165 173 181 194 223 261 244 206 172 129 122 87 319 298 287 274 271 237 196 199 202 208 243 13 28 45 48 53 54 42 63 74 51 32 32 52 74 107 111 99 98 87 83 92 138 159 144 146 137 102 77 83 86 61 51 57 53 95 107 130 101 107 133 141 163 138 154 169 191 219 234 194 262 273 252 258 273 265 260 266 269 268 268 274 283 293
159 156 156 167 182 217 244 210 166 158 154 108 46 81 61 28 12 320 262 203 192 206 218 240 267 285 302 4 28 52 50 39 44 40 34 35 50 66 84 103 116 121 117 101 92 106 148 155 155 152 118 92 68 84 80 54 50 38 33 94 106 122 103 123 154 157 182 136 152 168 195 228 251 252 263 281 282 270 266 266 259 262 268 267 264 270 281 296
148 150 156 169 202 222 187 158 151 146 112 29 82 118 103 63 46 38 78 162 183 210 230 256 268 272 276 288 285 159 56 59 30 13 22 40 53 81 83 90 118 137 141 139 123 122 130 131 147 133 103 82 58 76 54 27 55 41 19 78 122 146 122 142 172 178 156 145 155 171 196 230 248 258 257 278 291 272 259 266 262 267 278 274 263 267 281 300
144 149 155 170 189 160 144 138 131 109 83 67 113 145 153 88 48 46 63 136 163 196 237 278 288 279 258 244 223 219 238 59 11 6 27 41 48 81 88 89 101 117 126 133 140 134 131 135 140 117 88 69 33 70 39 27 74 72 21 58 111 146 121 133 159 147 144 140 151 173 212 251 270 265 257 253 262 270 294 292 276 279 279 269 265 269 282 295
139 140 138 143 141 135 129 125 119 101 86 82 115 162 187 250 348 49 70 118 141 153 143 68 49 49 134 181 198 210 162 86 357 14 36 36 48 66 93 102 90 100 102 107 129 135 139 148 134 97 79 66 35 60 40 12 76 95 69 68 107 122 107 131 140 130 134 133 154 201 266 279 291 274 264 253 252 264 288 293 288 286 275 269 273 279 286 292
134 132 130 137 138 132 125 127 126 114 96 90 105 152 191 303 341 111 102 113 134 142 127 90 72 71 78 95 138 125 95 70 19 29 38 33 49 62 86 116 110 104 98 103 135 147 157 158 121 97 89 84 62 72 68 52 64 95 111 113 115 99 110 132 134 126 129 131 181 278 284 281 294 291 288 269 265 274 284 283 283 282 278 278 282 288 293 295
137 135 133 138 150 151 134 138 140 134 114 99 109 112 117 70 78 116 120 117 130 136 131 111 95 91 90 95 105 89 68 45 30 37 35 33 50 75 88 107 115 103 96 102 134 149 141 130 116 96 75 80 90 94 86 76 60 66 110 132 113 98 113 128 122 117 118 88 301 292 284 287 298 295 285 276 278 284 278 277 282 285 284 286 290 294 295 296
143 136 128 130 149 154 144 140 139 150 134 116 126 111 101 87 90 112 121 129 137 242 192 153 158 141 113 107 93 72 48 34 38 35 29 36 47 71 87 97 105 101 100 108 133 154 147 126 118 121 117 104 101 93 65 64 52 65 110 127 117 100 106 119 108 78 63 343 323 293 282 291 307 301 281 277 274 260 264 276 283 286 289 293 298 300 298 299
169 161 138 127 133 143 144 123 123 148 133 118 133 122 96 75 86 115 119 110 34 4 213 190 197 189 203 219 117 78 49 50 49 40 38 38 42 68 83 88 105 123 135 132 150 174 175 136 119 121 115 101 86 67 30 34 99 108 109 105 100 97 94 104 103 44 12 320 323 296 288 293 320 313 272 283 261 239 256 273 280 285 291 298 301 302 302 304
208 203 184 179 165 153 147 105 119 142 125 121 134 127 81 55 89 126 123 84 39 45 123 135 127 157 194 141 107 91 71 65 58 57 58 55 71 83 78 75 88 115 125 117 109 117 124 121 119 111 95 97 91 69 68 92 108 113 112 101 84 89 82 67 88 17 359 320 352 312 289 275 217 253 251 258 247 241 258 265 277 287 292 299 300 303 304 305
222 212 203 205 195 169 140 110 123 130 115 121 134 131 64 63 107 135 133 69 43 91 104 106 98 107 138 108 91 91 87 73 64 63 62 69 79 79 77 81 94 100 106 109 100 108 123 128 138 121 110 119 107 79 94 103 109 109 106 104 89 120 91 47 35 3 3 348 355 324 286 243 186 220 248 258 248 248 258 262 275 284 290 295 292 296 299 304
225 200 194 194 175 147 126 118 128 125 110 114 126 121 84 84 106 130 130 55 107 139 117 110 109 123 118 84 79 94 93 76 71 68 65 69 71 76 82 89 102 93 88 102 95 95 108 127 158 124 119 117 104 117 117 102 101 101 57 69 120 166 125 40 12 352 27 51 5 333 296 140 180 221 232 252 249 251 258 263 273 276 285 287 286 291 290 300
108 154 157 152 138 127 116 114 127 127 118 117 118 114 97 95 104 113 113 65 94 157 170 132 105 167 117 87 82 92 87 79 78 73 68 68 70 75 81 85 91 89 87 87 85 85 96 118 130 113 105 103 110 117 112 84 74 99 319 272 126 214 123 61 18 357 48 46 6 326 275 1 57 221 231 248 256 260 263 266 273 276 281 282 282 287 286 293
90 118 122 124 121 117 111 105 115 124 125 122 117 116 108 107 108 97 95 83 89 125 147 113 102 118 104 89 84 82 77 85 84 87 71 68 76 80 81 84 85 85 85 82 84 91 103 121 112 95 89 101 114 117 104 85 62 69 263 147 112 294 106 87 37 21 20 351 340 303 273 298 354 25 225 244 255 256 263 265 272 281 284 281 277 278 281 284
88 106 110 113 112 108 108 105 113 119 116 111 107 110 114 117 113 97 89 97 107 113 115 105 103 106 93 79 77 77 80 102 104 108 89 85 94 94 89 85 84 86 89 91 96 100 107 114 96 85 86 98 101 94 117 143 120 93 304 50 95 309 49 113 86 35 4 322 301 252 278 301 332 89 201 244 263 258 269 271 276 287 288 281 273 271 276 280
85 100 104 105 105 101 107 117 120 116 110 104 97 93 115 142 130 108 96 100 108 107 101 98 94 84 77 71 71 65 71 90 95 102 106 115 114 107 97 86 89 92 93 98 105 108 100 96 93 83 71 70 16 285 163 201 113 110 329 66 74 261 299 314 130 34 355 303 269 226 253 273 267 266 264 267 274 264 267 274 278 287 285 278 273 270 274 277
86 93 99 99 102 106 115 125 124 119 112 103 93 84 83 122 154 151 122 113 111 106 95 84 84 77 66 65 68 59 59 70 95 108 106 125 140 135 113 90 103 107 100 89 74 69 75 80 99 109 57 46 20 342 314 21 66 54 15 33 350 219 236 297 185 15 360 310 272 251 246 270 272 275 275 273 278 264 260 270 276 280 280 277 275 272 275 275
99 94 97 99 103 110 119 130 131 128 121 111 100 84 73 87 113 135 131 115 82 82 64 31 43 87 95 84 80 65 57 55 74 132 131 124 136 145 132 86 108 144 140 76 32 36 58 77 82 84 43 20 10 5 24 59 52 63 61 21 323 298 257 302 9 36 5 309 269 245 253 279 282 284 283 271 274 263 256 264 269 271 272 274 276 277 280 278
129 114 104 96 94 104 125 134 133 129 126 125 105 58 71 94 85 82 86 83 77 78 81 62 65 84 97 102 98 73 58 50 49 99 157 146 141 135 111 92 86 72 64 21 10 31 54 79 56 38 21 354 334 1 54 82 68 103 119 210 272 287 287 70 117 92 6 306 256 224 266 279 277 283 288 269 260 252 244 250 254 251 250 261 271 280 282 284
136 138 118 87 80 106 128 127 125 129 131 140 15 336 231 148 103 97 85 76 73 75 77 75 75 78 76 84 107 97 74 54 49 69 135 153 165 167 1 105 102 57 39 332 331 30 46 75 60 34 32 359 300 182 152 129 82 114 228 298 168 249 295 45 296 88 16 313 236 216 279 276 273 280 273 238 237 226 211 209 212 214 221 237 253 272 279 284
119 125 113 98 98 109 122 118 117 175 193 216 74 89 110 112 111 111 99 84 74 73 72 72 73 72 70 70 82 117 114 60 48 54 78 123 154 172 53 73 81 71 6 324 117 68 54 77 68 77 119 107 105 140 182 112 55 38 236 282 248 310 304 278 175 159 308 293 284 317 296 284 284 287 262 231 232 227 208 200 195 198 207 222 242 265 274 275
116 116 112 104 102 100 94 84 81 100 116 117 112 103 99 100 102 100 99 97 79 64 63 65 63 61 61 58 64 87 81 54 33 31 44 82 93 83 81 73 70 88 7 0 77 116 76 79 66 123 170 165 88 113 192 141 111 19 6 311 327 2 325 260 129 308 291 271 305 310 291 281 290 270 245 231 246 269 245 226 219 218 221 229 252 277 285 282
122 119 116 107 100 94 85 80 79 90 102 105 105 99 90 87 96 101 93 93 90 60 52 53 48 47 49 46 55 73 70 60 33 21 34 66 83 76 74 69 70 74 27 22 74 88 75 52 67 144 193 256 143 126 160 268 110 68 19 355 336 338 314 292 326 319 290 197 307 310 276 243 240 224 209 167 278 287 270 257 252 246 243 248 268 291 300 299
135 133 127 112 100 91 84 78 75 82 93 93 85 84 75 56 73 126 104 87 96 39 23 35 33 32 31 25 44 88 72 58 36 25 34 52 65 87 86 59 51 81 342 7 73 81 66 50 118 176 148 194 233 86 39 304 321 123 85 6 340 324 300 295 316 317 266 172 27 331 284 181 138 235 232 110 305 278 263 263 259 250 247 249 265 290 299 299
161 169 173 147 109 84 75 74 63 54 62 88 69 36 8 1 63 128 120 97 94 0 359 19 19 16 11 7 12 164 88 53 33 29 36 43 52 98 103 49 41 108 184 74 90 89 66 94 179 242 159 193 223 84 62 308 315 141 73 37 348 311 298 313 332 319 266 320 357 344 328 320 189 228 250 30 301 274 258 253 252 245 238 236 247 274 289 291
178 205 231 247 238 37 51 42 15 16 33 63 339 349 344 223 115 101 51 82 126 353 1 356 7 28 16 11 20 160 136 52 34 31 37 42 49 90 100 48 50 84 130 168 118 78 53 138 123 74 188 217 13 67 60 331 317 349 68 325 291 311 305 336 336 311 335 315 261 31 14 285 269 108 67 3 293 270 262 249 242 238 235 231 237 260 282 283
141 207 242 256 257 269 298 311 318 327 304 290 334 28 89 108 118 38 54 120 255 354 27 17 63 47 26 28 42 67 75 54 39 22 32 43 48 74 79 54 85 91 100 229 168 67 16 59 48 353 286 39 35 41 49 310 308 24 103 255 329 331 322 337 303 281 328 273 208 49 9 275 264 112 113 356 284 267 266 250 236 229 229 227 230 249 275 278
74 93 249 261 265 272 282 291 296 292 266 224 97 128 131 97 117 25 96 164 295 67 54 11 82 4 356 28 42 48 56 46 37 19 32 48 50 70 90 93 110 111 78 18 84 108 44 35 10 330 2 36 60 52 26 268 314 69 145 191 133 162 177 299 297 288 256 255 156 29 352 316 313 110 148 140 252 261 265 252 244 222 221 222 225 239 260 269
45 51 45 281 274 276 277 282 279 255 198 144 121 143 149 106 102 86 79 208 261 79 322 337 317 332 344 18 34 31 41 32 21 28 54 61 59 75 95 103 109 112 77 53 66 95 99 76 57 21 39 55 106 86 36 8 74 113 197 226 196 193 204 208 281 290 245 233 102 32 348 329 318 83 177 194 183 228 201 206 224 208 212 217 221 232 245 255
34 37 32 1 297 288 269 252 232 191 161 145 126 127 143 107 83 127 88 166 129 325 333 7 351 350 8 72 33 15 25 22 10 18 53 51 46 61 75 93 93 112 104 74 69 107 167 126 80 68 85 89 144 123 63 85 122 233 238 256 238 195 199 208 194 221 265 319 98 45 342 307 266 177 138 197 189 215 225 223 211 201 212 218 221 230 239 250
39 44 41 47 64 41 193 189 175 161 153 146 135 127 146 130 334 189 307 4 61 347 20 30 354 16 24 50 39 4 340 15 13 21 48 23 32 41 17 350 2 215 127 80 84 136 147 99 89 136 114 63 238 195 133 130 172 246 244 261 271 195 185 232 197 204 278 13 108 105 341 278 246 256 267 256 232 224 240 257 261 235 226 228 230 235 243 252
44 54 53 53 65 79 133 154 149 148 147 141 139 104 83 89 266 167 79 3 18 353 29 33 6 27 347 14 40 354 316 4 360 21 64 318 61 68 43 36 346 282 74 86 159 166 147 124 126 185 134 33 312 309 334 148 204 258 304 318 311 347 14 337 324 274 286 17 115 193 313 278 258 267 256 265 298 305 260 256 258 254 243 239 237 240 247 254
38 50 50 48 60 77 100 127 133 135 138 136 127 66 61 172 242 148 231 268 319 344 9 1 340 47 39 54 28 313 255 68 337 3 43 305 86 81 112 89 13 318 88 127 147 7 281 149 82 41 35 344 313 353 349 308 301 18 329 309 316 357 344 324 318 313 315 318 125 171 284 271 319 1 207 267 299 296 274 260 257 256 253 252 250 248 252 259
31 46 48 43 52 67 78 105 124 133 145 139 91 60 102 237 220 159 203 209 200 225 126 317 318 75 47 34 26 291 242 66 14 27 19 13 84 57 51 43 7 349 260 211 113 63 271 311 57 34 7 3 353 25 340 276 265 120 189 258 319 357 341 9 15 352 329 306 271 228 262 242 275 306 277 274 285 279 269 262 260 260 260 261 260 258 262 269
27 40 48 43 47 57 69 100 126 140 153 138 77 83 207 249 214 168 152 135 147 159 153 156 30 76 112 263 74 63 301 346 355 340 36 39 150 175 87 334 359 358 321 341 130 192 278 109 95 61 55 45 13 63 334 293 287 196 256 35 47 348 283 111 97 142 224 274 274 294 285 281 277 277 282 293 288 269 254 250 253 258 260 260 262 267 274 281
22 34 53 51 44 50 67 100 132 150 154 126 89 207 206 18 263 197 41 57 143 153 148 152 46 38 177 188 158 144 331 326 316 311 111 112 196 163 153 224 177 223 322 324 178 233 311 142 121 189 143 79 8 220 203 301 300 280 329 93 111 238 224 209 285 302 263 283 301 50 300 302 309 292 306 309 282 254 231 241 255 258 258 259 264 275 283 287
17 34 60 56 46 50 71 106 138 147 135 104 97 231 171 148 313 237 325 8 119 149 130 145 30 339 198 185 166 137 346 297 79 45 145 213 174 158 162 156 172 248 314 308 203 73 296 235 111 153 272 60 309 250 215 123 28 355 91 113 197 282 46 286 301 331 338 308 291 308 305 278 240 219 229 193 210 226 224 258 275 261 259 266 277 289 293 293
16 44 67 52 46 53 72 123 149 145 125 109 204 197 168 195 87 128 160 350 312 202 137 131 30 350 205 187 118 99 358 329 104 77 200 204 140 179 212 186 177 219 302 297 239 94 300 279 115 138 302 335 234 231 223 135 131 164 144 143 306 5 349 354 29 316 302 307 293 313 332 254 214 215 224 202 197 214 228 252 274 279 284 287 295 305 307 306
9 79 79 48 46 53 85 138 144 132 111 70 174 157 141 190 160 137 135 112 108 175 136 154 153 153 183 242 306 137 49 18 126 112 233 210 137 171 205 200 153 146 311 334 215 244 157 263 305 114 208 269 219 130 326 358 108 208 190 163 132 107 319 265 106 355 302 293 269 291 298 272 221 179 212 220 203 227 246 261 284 292 296 298 305 311 313 313
8 105 115 58 47 59 113 117 83 68 93 85 74 125 140 148 148 136 130 118 89 68 98 128 131 137 162 184 236 183 144 89 132 168 213 195 204 150 157 166 146 144 168 138 156 233 194 212 290 215 206 228 89 50 358 352 344 309 288 224 156 143 201 233 244 63 343 279 245 271 289 283 281 152 226 238 250 279 266 274 285 291 298 305 310 313 314 314
119 105 155 60 33 96 132 91 48 49 91 109 89 114 137 140 145 149 151 124 89 95 102 98 85 96 145 159 131 170 166 129 143 177 239 198 237 23 142 153 154 160 171 100 89 208 203 199 254 255 253 50 47 43 22 342 320 294 297 323 73 158 212 246 254 186 161 208 53 33 279 275 272 146 238 255 260 264 264 261 273 292 303 308 313 318 322 323
80 66 147 2 18 135 134 90 40 47 51 81 98 106 120 133 151 153 162 159 136 144 113 99 78 83 156 229 142 161 196 194 179 175 221 204 103 92 154 160 160 161 170 224 108 157 179 223 268 262 105 118 131 129 133 345 312 260 245 215 208 271 309 330 348 87 179 187 161 167 251 257 150 164 252 268 270 267 267 269 278 294 305 311 317 323 328 331
38 84 136 11 11 179 174 163 155 115 71 102 91 90 108 115 153 146 171 190 160 155 132 122 128 111 105 88 113 132 229 211 200 203 147 193 151 127 158 168 167 169 202 250 129 173 195 117 282 288 319 183 181 172 179 160 231 249 223 155 211 136 96 96 92 74 251 210 176 198 253 252 124 84 263 260 265 269 272 281 288 294 305 314 319 325 329 331
33 111 141 28 21 295 171 142 134 130 150 149 112 128 132 96 101 126 139 149 139 140 125 114 124 115 103 85 87 76 14 2 176 122 99 168 155 134 161 179 184 195 221 153 136 167 216 295 219 259 293 269 270 302 293 115 148 224 193 182 208 177 161 175 127 163 238 199 167 210 250 265 192 210 239 241 262 285 289 295 298 297 305 312 316 322 327 331
66 101 25 17 21 45 90 102 110 123 150 168 139 159 162 111 106 120 114 120 127 123 104 104 128 117 100 117 95 72 12 1 28 128 179 189 155 131 186 177 168 157 134 127 132 129 71 266 234 245 256 267 311 10 69 107 165 201 188 190 198 198 203 191 141 202 204 154 195 229 246 289 283 267 263 268 271 280 291 300 304 306 310 313 315 319 323 331
80 112 348 355 23 51 75 70 67 107 146 175 155 146 146 127 80 147 167 204 179 150 109 83 158 165 164 163 143 127 199 355 9 136 201 206 105 81 215 181 157 170 150 134 134 109 120 235 214 232 251 268 308 11 157 213 240 236 225 204 191 192 194 192 207 202 133 143 247 236 211 249 270 274 282 287 285 287 295 299 301 305 310 312 314 318 324 333
53 103 63 110 74 53 58 34 54 97 106 109 119 126 140 150 170 181 182 197 197 187 174 176 226 218 193 165 157 159 158 336 290 202 176 160 145 128 167 186 199 193 170 164 165 99 234 254 166 182 264 274 275 248 200 213 242 245 240 230 201 186 189 205 221 202 158 215 255 244 173 239 264 278 281 282 290 303 302 298 297 300 304 309 314 318 324 331
61 85 95 117 116 117 119 50 88 108 91 65 81 137 158 179 190 188 151 129 177 230 205 220 246 217 186 175 157 152 173 203 238 222 183 155 175 176 151 187 210 198 174 164 129 110 211 233 129 159 283 282 272 257 206 217 250 257 244 237 219 201 201 214 228 212 199 239 262 272 278 275 273 273 275 281 291 297 293 292 295 299 304 309 313 317 321 325
74 87 121 134 101 95 107 96 100 112 72 45 142 184 175 187 192 187 168 172 177 189 191 218 249 175 156 174 181 205 219 193 142 233 182 152 151 210 204 185 156 151 175 172 111 153 221 238 96 113 285 281 287 20 165 210 237 255 255 243 223 215 218 226 238 229 219 245 261 270 283 279 270 269 274 282 287 289 286 289 294 299 306 310 312 315 319 320
62 69 132 140 110 90 96 95 98 111 153 177 190 174 174 204 198 173 174 210 202 171 189 198 162 121 93 175 209 246 239 190 25 281 185 171 155 190 197 173 150 149 166 175 152 162 198 210 91 101 277 275 3 11 322 273 256 254 262 251 219 207 212 219 222 209 206 223 243 262 265 258 262 280 292 278 275 272 275 286 295 302 307 307 306 310 316 319
58 89 152 148 130 129 146 128 101 95 210 204 177 171 187 215 184 170 174 244 214 198 205 189 158 127 107 203 226 240 214 181 19 89 170 172 115 143 148 147 154 154 157 163 155 155 188 188 141 158 264 272 343 343 337 325 293 262 258 250 210 192 197 213 226 217 208 206 211 224 232 241 259 6 296 279 274 268 274 285 295 300 301 302 303 307 314 320